| time (UTC) | temp F | wind direction | speed MPH | gust MPH | rain 1hr in | rain 24hr in | rain mn in | humidity % | barometer mb |
| 20260505052003 | 53 | 180 | 0.0 | 0.0 | 0.00 | 0.00 | 0.00 | 86 | 1015.3 |
| 20260505051513 | 53 | 180 | 0.0 | 0.0 | 0.00 | 0.00 | 0.00 | 86 | 1015.3 |
| 20260505051009 | 53 | 180 | 0.0 | 0.0 | 0.00 | 0.00 | 0.00 | 86 | 1015.3 |
| 20260505050503 | 53 | 180 | 0.0 | 0.0 | 0.00 | 0.00 | 0.00 | 86 | 1015.2 |
| 20260505041514 | 55 | 209 | 0.0 | 0.0 | 0.00 | 0.00 | 0.00 | 84 | 1015.4 |
| 20260505041005 | 55 | 209 | 0.0 | 0.0 | 0.00 | 0.00 | 0.00 | 83 | 1015.6 |
| 20260505040503 | 55 | 209 | 0.0 | 0.0 | 0.00 | 0.00 | 0.00 | 83 | 1015.5 |
| 20260505040021 | 55 | 209 | 0.0 | 0.0 | 0.00 | 0.00 | 0.00 | 83 | 1015.6 |
| 20260505035507 | 55 | 209 | 0.0 | 0.0 | 0.00 | 0.00 | 0.00 | 82 | 1015.6 |
| 20260505035007 | 55 | 209 | 0.0 | 0.0 | 0.00 | 0.00 | 0.00 | 79 | 1015.8 |
| 20260505034523 | 56 | 209 | 0.0 | 0.0 | 0.00 | 0.00 | 0.00 | 76 | 1015.7 |
| 20260505034009 | 57 | 209 | 0.0 | 0.0 | 0.00 | 0.00 | 0.00 | 76 | 1015.7 |
| 20260505033506 | 57 | 209 | 0.0 | 0.0 | 0.00 | 0.00 | 0.00 | 74 | 1015.8 |
| 20260505033024 | 58 | 209 | 0.0 | 0.0 | 0.00 | 0.00 | 0.00 | 73 | 1015.9 |
| 20260505032507 | 59 | 209 | 0.0 | 0.0 | 0.00 | 0.00 | 0.00 | 72 | 1015.8 |
| 20260505032003 | 59 | 209 | 0.0 | 0.0 | 0.00 | 0.00 | 0.00 | 72 | 1015.9 |
| 20260505031530 | 59 | 209 | 0.0 | 0.0 | 0.00 | 0.00 | 0.00 | 72 | 1015.9 |
| 20260505031002 | 60 | 209 | 0.0 | 0.0 | 0.00 | 0.00 | 0.00 | 69 | 1015.9 |
| 20260505030505 | 60 | 209 | 0.0 | 0.0 | 0.00 | 0.00 | 0.00 | 68 | 1016.0 |
| 20260505030017 | 60 | 209 | 0.0 | 0.0 | 0.00 | 0.00 | 0.00 | 67 | 1016.0 |
| 20260505025504 | 60 | 209 | 0.0 | 0.0 | 0.00 | 0.00 | 0.00 | 67 | 1016.0 |
| 20260505025004 | 59 | 209 | 0.0 | 0.0 | 0.00 | 0.00 | 0.00 | 67 | 1016.0 |
| 20260505024532 | 59 | 209 | 0.0 | 0.0 | 0.00 | 0.00 | 0.00 | 70 | 1016.2 |
| 20260505024006 | 59 | 209 | 0.0 | 0.0 | 0.00 | 0.00 | 0.00 | 67 | 1016.2 |
| 20260505023507 | 59 | 209 | 0.0 | 0.0 | 0.00 | 0.00 | 0.00 | 68 | 1016.3 |
| 20260505023028 | 60 | 209 | 0.0 | 0.0 | 0.00 | 0.00 | 0.00 | 68 | 1016.3 |
| 20260505022506 | 60 | 209 | 0.0 | 0.0 | 0.00 | 0.00 | 0.00 | 66 | 1016.2 |
| 20260505022011 | 61 | 209 | 0.0 | 0.0 | 0.00 | 0.00 | 0.00 | 64 | 1016.2 |
| 20260505021528 | 61 | 209 | 0.0 | 0.0 | 0.00 | 0.00 | 0.00 | 63 | 1016.2 |
| 20260505021004 | 62 | 209 | 0.0 | 0.0 | 0.00 | 0.00 | 0.00 | 63 | 1016.1 |
| 20260505020503 | 62 | 209 | 0.0 | 0.0 | 0.00 | 0.00 | 0.00 | 62 | 1016.2 |
| 20260505020026 | 63 | 209 | 0.0 | 0.0 | 0.00 | 0.00 | 0.00 | 62 | 1016.2 |
| 20260505015508 | 63 | 209 | 0.0 | 0.0 | 0.00 | 0.00 | 0.00 | 60 | 1016.1 |
| 20260505015006 | 64 | 209 | 0.0 | 0.0 | 0.00 | 0.00 | 0.00 | 58 | 1016.1 |
| 20260505014527 | 64 | 209 | 0.0 | 0.0 | 0.00 | 0.00 | 0.00 | 57 | 1016.1 |
| 20260505014008 | 64 | 209 | 0.0 | 0.0 | 0.00 | 0.00 | 0.00 | 57 | 1016.0 |
| 20260505013514 | 64 | 209 | 0.0 | 0.0 | 0.00 | 0.00 | 0.00 | 56 | 1015.9 |
| 20260505013025 | 65 | 209 | 0.0 | 0.0 | 0.00 | 0.00 | 0.00 | 56 | 1015.8 |
| 20260505012507 | 65 | 209 | 0.0 | 2.0 | 0.00 | 0.00 | 0.00 | 56 | 1015.7 |
| 20260505012007 | 65 | 209 | 0.0 | 2.0 | 0.00 | 0.00 | 0.00 | 55 | 1015.7 |
| 20260505011533 | 66 | 161 | 0.0 | 1.0 | 0.00 | 0.00 | 0.00 | 54 | 1015.8 |
| 20260505011010 | 66 | 209 | 0.0 | 2.0 | 0.00 | 0.00 | 0.00 | 54 | 1015.8 |
| 20260505010513 | 67 | 209 | 0.0 | 3.0 | 0.00 | 0.00 | 0.00 | 53 | 1015.6 |
| 20260505010014 | 67 | 211 | 1.0 | 3.0 | 0.00 | 0.00 | 0.00 | 52 | 1015.6 |
| 20260505005504 | 67 | 196 | 0.0 | 2.0 | 0.00 | 0.00 | 0.00 | 52 | 1015.6 |
| 20260505005007 | 68 | 237 | 0.0 | 3.0 | 0.00 | 0.00 | 0.00 | 50 | 1015.5 |
| 20260505004539 | 68 | 217 | 0.0 | 3.0 | 0.00 | 0.00 | 0.00 | 50 | 1015.5 |
| 20260505004006 | 69 | 206 | 0.0 | 0.0 | 0.00 | 0.00 | 0.00 | 49 | 1015.6 |
| 20260505003506 | 69 | 206 | 0.0 | 0.0 | 0.00 | 0.00 | 0.00 | 48 | 1015.4 |
| 20260505003022 | 70 | 227 | 0.0 | 1.0 | 0.00 | 0.00 | 0.00 | 47 | 1015.4 |
| 20260505002511 | 70 | 227 | 0.0 | 3.0 | 0.00 | 0.00 | 0.00 | 46 | 1015.3 |
| 20260505002022 | 71 | 250 | 0.0 | 5.0 | 0.00 | 0.00 | 0.00 | 45 | 1015.2 |
| 20260505001525 | 71 | 234 | 0.0 | 5.0 | 0.00 | 0.00 | 0.00 | 44 | 1015.2 |
| 20260505001010 | 72 | 269 | 1.0 | 5.0 | 0.00 | 0.00 | 0.00 | 44 | 1015.1 |
| 20260505000508 | 72 | 263 | 1.0 | 5.0 | 0.00 | 0.00 | 0.00 | 43 | 1015.0 |
| 20260505000039 | 73 | 223 | 0.0 | 7.0 | 0.00 | 0.00 | 0.00 | 42 | 1015.0 |
| 20260504235507 | 73 | 252 | 3.0 | 8.0 | 0.00 | 0.00 | 0.00 | 42 | 1014.9 |
| 20260504235004 | 74 | 197 | 3.0 | 8.0 | 0.00 | 0.00 | 0.00 | 41 | 1015.0 |
| 20260504234514 | 74 | 111 | 2.0 | 6.0 | 0.00 | 0.00 | 0.00 | 41 | 1015.0 |
| 20260504234003 | 75 | 17 | 1.0 | 9.0 | 0.00 | 0.00 | 0.00 | 41 | 1015.0 |
| 20260504233508 | 76 | 208 | 2.0 | 9.0 | 0.00 | 0.00 | 0.00 | 40 | 1014.9 |
| 20260504233020 | 76 | 165 | 3.0 | 7.0 | 0.00 | 0.00 | 0.00 | 39 | 1014.8 |
| 20260504232507 | 77 | 264 | 2.0 | 6.0 | 0.00 | 0.00 | 0.00 | 40 | 1014.6 |
| 20260504232007 | 78 | 203 | 3.0 | 6.0 | 0.00 | 0.00 | 0.00 | 38 | 1014.5 |
| 20260504231522 | 78 | 103 | 0.0 | 6.0 | 0.00 | 0.00 | 0.00 | 38 | 1014.5 |
| 20260504231010 | 78 | 267 | 2.0 | 9.0 | 0.00 | 0.00 | 0.00 | 38 | 1014.4 |
| 20260504230507 | 78 | 222 | 3.0 | 9.0 | 0.00 | 0.00 | 0.00 | 37 | 1014.5 |
| 20260504230026 | 79 | 253 | 3.0 | 9.0 | 0.00 | 0.00 | 0.00 | 37 | 1014.4 |
| 20260504225509 | 79 | 180 | 3.0 | 8.0 | 0.00 | 0.00 | 0.00 | 36 | 1014.5 |
| 20260504225010 | 79 | 213 | 3.0 | 8.0 | 0.00 | 0.00 | 0.00 | 37 | 1014.4 |
| 20260504224527 | 80 | 248 | 3.0 | 8.0 | 0.00 | 0.00 | 0.00 | 36 | 1014.5 |
| 20260504224003 | 80 | 223 | 3.0 | 7.0 | 0.00 | 0.00 | 0.00 | 35 | 1014.5 |
| 20260504223507 | 80 | 207 | 2.0 | 9.0 | 0.00 | 0.00 | 0.00 | 35 | 1014.4 |
| 20260504223019 | 80 | 249 | 3.0 | 9.0 | 0.00 | 0.00 | 0.00 | 37 | 1014.5 |
| 20260504222507 | 80 | 213 | 3.0 | 8.0 | 0.00 | 0.00 | 0.00 | 35 | 1014.5 |
| 20260504222007 | 81 | 216 | 3.0 | 5.0 | 0.00 | 0.00 | 0.00 | 34 | 1014.5 |
| 20260504221523 | 81 | 298 | 2.0 | 6.0 | 0.00 | 0.00 | 0.00 | 32 | 1014.6 |
| 20260504221008 | 81 | 288 | 3.0 | 6.0 | 0.00 | 0.00 | 0.00 | 31 | 1014.7 |
| 20260504220507 | 81 | 21 | 0.0 | 4.0 | 0.00 | 0.00 | 0.00 | 31 | 1014.6 |
| 20260504220024 | 81 | 44 | 2.0 | 4.0 | 0.00 | 0.00 | 0.00 | 30 | 1014.5 |
| 20260504215508 | 81 | 352 | 2.0 | 4.0 | 0.00 | 0.00 | 0.00 | 29 | 1014.5 |
| 20260504215008 | 81 | 298 | 0.0 | 4.0 | 0.00 | 0.00 | 0.00 | 30 | 1014.5 |
| 20260504214529 | 80 | 190 | 1.0 | 4.0 | 0.00 | 0.00 | 0.00 | 30 | 1014.5 |
| 20260504214011 | 80 | 280 | 2.0 | 4.0 | 0.00 | 0.00 | 0.00 | 30 | 1014.5 |
| 20260504213508 | 80 | 41 | 1.0 | 4.0 | 0.00 | 0.00 | 0.00 | 30 | 1014.5 |
| 20260504213017 | 80 | 70 | 0.0 | 4.0 | 0.00 | 0.00 | 0.00 | 30 | 1014.4 |
| 20260504212505 | 80 | 69 | 2.0 | 4.0 | 0.00 | 0.00 | 0.00 | 30 | 1014.4 |
| 20260504212008 | 81 | 271 | 2.0 | 6.0 | 0.00 | 0.00 | 0.00 | 30 | 1014.5 |
| 20260504211521 | 80 | 284 | 2.0 | 6.0 | 0.00 | 0.00 | 0.00 | 31 | 1014.6 |
| 20260504211008 | 80 | 229 | 1.0 | 3.0 | 0.00 | 0.00 | 0.00 | 31 | 1014.6 |
| 20260504210508 | 81 | 90 | 1.0 | 8.0 | 0.00 | 0.00 | 0.00 | 29 | 1014.5 |
| 20260504210027 | 81 | 176 | 1.0 | 8.0 | 0.00 | 0.00 | 0.00 | 30 | 1014.6 |
| 20260504205508 | 81 | 177 | 3.0 | 7.0 | 0.00 | 0.00 | 0.00 | 30 | 1014.6 |
| 20260504205007 | 81 | 104 | 0.0 | 4.0 | 0.00 | 0.00 | 0.00 | 30 | 1014.7 |
| 20260504204526 | 80 | 281 | 2.0 | 5.0 | 0.00 | 0.00 | 0.00 | 30 | 1014.9 |
| 20260504204008 | 80 | 188 | 2.0 | 5.0 | 0.00 | 0.00 | 0.00 | 30 | 1014.8 |
| 20260504203509 | 80 | 250 | 1.0 | 6.0 | 0.00 | 0.00 | 0.00 | 30 | 1014.9 |
| 20260504203014 | 80 | 215 | 2.0 | 9.0 | 0.00 | 0.00 | 0.00 | 31 | 1015.0 |
| 20260504202511 | 79 | 166 | 5.0 | 9.0 | 0.00 | 0.00 | 0.00 | 32 | 1015.0 |
| 20260504202007 | 79 | 53 | 4.0 | 9.0 | 0.00 | 0.00 | 0.00 | 30 | 1015.1 |
| 20260504201520 | 79 | 205 | 3.0 | 6.0 | 0.00 | 0.00 | 0.00 | 32 | 1015.1 |
| 20260504201002 | 79 | 255 | 1.0 | 6.0 | 0.00 | 0.00 | 0.00 | 30 | 1015.4 |
| 20260504200502 | 79 | 99 | 3.0 | 6.0 | 0.00 | 0.00 | 0.00 | 32 | 1015.5 |
| 20260504200007 | 79 | 95 | 2.0 | 7.0 | 0.00 | 0.00 | 0.00 | 33 | 1015.6 |
| 20260504195502 | 79 | 121 | 4.0 | 8.0 | 0.00 | 0.00 | 0.00 | 31 | 1015.6 |
| 20260504195003 | 79 | 129 | 5.0 | 8.0 | 0.00 | 0.00 | 0.00 | 31 | 1015.7 |
| 20260504194509 | 79 | 152 | 3.0 | 12.0 | 0.00 | 0.00 | 0.00 | 30 | 1015.7 |
| 20260504194004 | 79 | 179 | 7.0 | 12.0 | 0.00 | 0.00 | 0.00 | 30 | 1015.8 |
| 20260504193505 | 79 | 267 | 3.0 | 12.0 | 0.00 | 0.00 | 0.00 | 31 | 1015.8 |
| 20260504193014 | 78 | 158 | 3.0 | 6.0 | 0.00 | 0.00 | 0.00 | 32 | 1015.9 |
| 20260504192504 | 78 | 241 | 1.0 | 4.0 | 0.00 | 0.00 | 0.00 | 30 | 1016.0 |
| 20260504192006 | 79 | 256 | 2.0 | 7.0 | 0.00 | 0.00 | 0.00 | 31 | 1016.2 |
| 20260504191518 | 79 | 217 | 3.0 | 6.0 | 0.00 | 0.00 | 0.00 | 30 | 1016.2 |
| 20260504191005 | 79 | 207 | 2.0 | 6.0 | 0.00 | 0.00 | 0.00 | 33 | 1016.2 |
| 20260504190511 | 78 | 176 | 1.0 | 8.0 | 0.00 | 0.00 | 0.00 | 34 | 1016.3 |
| 20260504190003 | 77 | 269 | 3.0 | 8.0 | 0.00 | 0.00 | 0.00 | 34 | 1016.4 |
| 20260504185502 | 78 | 127 | 3.0 | 8.0 | 0.00 | 0.00 | 0.00 | 32 | 1016.5 |
| 20260504185002 | 78 | 186 | 5.0 | 8.0 | 0.00 | 0.00 | 0.00 | 33 | 1016.6 |
| 20260504184508 | 78 | 178 | 5.0 | 7.0 | 0.00 | 0.00 | 0.00 | 31 | 1016.6 |
| 20260504184004 | 78 | 207 | 3.0 | 9.0 | 0.00 | 0.00 | 0.00 | 33 | 1016.6 |
| 20260504183504 | 78 | 165 | 5.0 | 9.0 | 0.00 | 0.00 | 0.00 | 33 | 1016.7 |
| 20260504183014 | 77 | 210 | 1.0 | 5.0 | 0.00 | 0.00 | 0.00 | 34 | 1016.7 |
| 20260504182504 | 77 | 277 | 3.0 | 6.0 | 0.00 | 0.00 | 0.00 | 33 | 1016.7 |
| 20260504182003 | 77 | 155 | 3.0 | 8.0 | 0.00 | 0.00 | 0.00 | 36 | 1016.8 |
| 20260504181518 | 76 | 100 | 2.0 | 8.0 | 0.00 | 0.00 | 0.00 | 35 | 1017.0 |
| 20260504181007 | 76 | 113 | 2.0 | 7.0 | 0.00 | 0.00 | 0.00 | 36 | 1016.9 |
| 20260504180508 | 76 | 103 | 3.0 | 7.0 | 0.00 | 0.00 | 0.00 | 33 | 1016.9 |
| 20260504180023 | 76 | 129 | 1.0 | 7.0 | 0.00 | 0.00 | 0.00 | 35 | 1017.0 |
| 20260504175508 | 76 | 149 | 2.0 | 6.0 | 0.00 | 0.00 | 0.00 | 36 | 1017.1 |
| 20260504175003 | 76 | 155 | 3.0 | 9.0 | 0.00 | 0.00 | 0.00 | 34 | 1017.1 |
| 20260504174504 | 76 | 138 | 6.0 | 9.0 | 0.00 | 0.00 | 0.00 | 34 | 1017.1 |
| 20260504174003 | 75 | 125 | 2.0 | 4.0 | 0.00 | 0.00 | 0.00 | 34 | 1017.2 |
| 20260504173503 | 76 | 116 | 2.0 | 5.0 | 0.00 | 0.00 | 0.00 | 35 | 1017.3 |
| 20260504173009 | 75 | 155 | 3.0 | 5.0 | 0.00 | 0.00 | 0.00 | 35 | 1017.3 |
| 20260504172504 | 75 | 319 | 1.0 | 9.0 | 0.00 | 0.00 | 0.00 | 35 | 1017.3 |
| 20260504172004 | 75 | 165 | 3.0 | 9.0 | 0.00 | 0.00 | 0.00 | 34 | 1017.4 |
| 20260504171514 | 75 | 141 | 2.0 | 7.0 | 0.00 | 0.00 | 0.00 | 37 | 1017.6 |
| 20260504171006 | 74 | 27 | 2.0 | 8.0 | 0.00 | 0.00 | 0.00 | 35 | 1017.6 |
| 20260504170509 | 74 | 342 | 3.0 | 8.0 | 0.00 | 0.00 | 0.00 | 37 | 1017.7 |
| 20260504151003 | 73 | 44 | 2.0 | 6.0 | 0.00 | 0.00 | 0.00 | 39 | 1018.5 |
| 20260504150507 | 72 | 13 | 3.0 | 8.0 | 0.00 | 0.00 | 0.00 | 39 | 1018.5 |
| 20260504141005 | 70 | 88 | 3.0 | 7.0 | 0.00 | 0.00 | 0.00 | 51 | 1018.6 |
| 20260504140502 | 69 | 84 | 2.0 | 4.0 | 0.00 | 0.00 | 0.00 | 53 | 1018.6 |
| 20260504130503 | 60 | 121 | 0.0 | 0.0 | 0.00 | 0.00 | 0.00 | 79 | 1018.5 |
| 20260504110502 | 45 | 54 | 0.0 | 0.0 | 0.00 | 0.00 | 0.00 | 96 | 1017.9 |
| 20260504100502 | 46 | 297 | 0.0 | 0.0 | 0.00 | 0.00 | 0.00 | 95 | 1018.0 |
| 20260504081523 | 47 | 36 | 0.0 | 0.0 | 0.00 | 0.00 | 0.00 | 94 | 1018.1 |
| 20260504081008 | 48 | 36 | 0.0 | 0.0 | 0.00 | 0.00 | 0.00 | 95 | 1018.1 |
| 20260504080508 | 48 | 36 | 0.0 | 0.0 | 0.00 | 0.00 | 0.00 | 95 | 1018.2 |